• In Russia
  • List of Countries
  • For 7 days
  • Water Temperature
  • Satellite Maps
  • Weather Map
  • Weather Widgets
  • user-avatar
    Login

    Hourly Weather Wlora

    Today, 24 June, Sunday

    Time Temperature Precipitation Wind Pressure Humidity
    00:00 +20°C° 0 mm 5 mps 761 mmHg 78%
    01:00 +20°C° 0 mm 5 mps 761 mmHg 78%
    02:00 +20°C° 0 mm 4 mps 761 mmHg 77%
    03:00 +19°C° 0 mm 4 mps 761 mmHg 76%
    04:00 +19°C° 0 mm 4 mps 760 mmHg 75%
    05:00 +20°C° 0 mm 4 mps 761 mmHg 71%
    06:00 +21°C° 0 mm 3 mps 761 mmHg 67%
    07:00 +24°C° 0 mm 3 mps 761 mmHg 62%
    08:00 +25°C° 0 mm 3 mps 761 mmHg 60%
    09:00 +27°C° 0 mm 3 mps 761 mmHg 57%
    10:00 +28°C° 0 mm 3 mps 761 mmHg 54%
    11:00 +28°C° 0 mm 4 mps 761 mmHg 52%
    12:00 +29°C° 0 mm 4 mps 761 mmHg 51%
    13:00 +29°C° 0 mm 5 mps 761 mmHg 49%
    14:00 +29°C° 0 mm 6 mps 760 mmHg 50%
    15:00 +29°C° 0 mm 6 mps 760 mmHg 51%
    16:00 +29°C° 0 mm 6 mps 760 mmHg 52%
    17:00 +27°C° 0 mm 6 mps 760 mmHg 57%
    18:00 +26°C° 0 mm 6 mps 760 mmHg 62%
    19:00 +23°C° 0 mm 6 mps 760 mmHg 67%
    20:00 +22°C° 0 mm 6 mps 760 mmHg 68%
    21:00 +21°C° 0 mm 5 mps 760 mmHg 70%
    22:00 +21°C° 0 mm 5 mps 760 mmHg 71%
    23:00 +21°C° 0 mm 5 mps 760 mmHg 71%

    Tomorrow, 25 June, Monday

    Time Temperature Precipitation Wind Pressure Humidity
    00:00 +20°C° 0 mm 4 mps 760 mmHg 71%
    01:00 +20°C° 0 mm 4 mps 760 mmHg 72%
    02:00 +20°C° 0 mm 4 mps 760 mmHg 73%
    03:00 +20°C° 0 mm 3 mps 759 mmHg 73%
    04:00 +20°C° 0 mm 3 mps 759 mmHg 74%
    05:00 +21°C° 0 mm 3 mps 759 mmHg 71%
    06:00 +22°C° 0 mm 3 mps 759 mmHg 68%
    07:00 +25°C° 0 mm 2 mps 759 mmHg 65%
    08:00 +26°C° 0 mm 2 mps 759 mmHg 61%
    09:00 +27°C° 0 mm 2 mps 759 mmHg 56%
    10:00 +28°C° 0 mm 1 mps 759 mmHg 52%
    11:00 +28°C° 0.1 mm 2 mps 759 mmHg 53%
    12:00 +28°C° 0.1 mm 2 mps 759 mmHg 53%
    13:00 +27°C° 0.1 mm 2 mps 759 mmHg 54%
    14:00 +27°C° 0.3 mm 2 mps 759 mmHg 57%
    15:00 +26°C° 0.3 mm 2 mps 759 mmHg 60%
    16:00 +26°C° 0.3 mm 2 mps 758 mmHg 63%
    17:00 +25°C° 0 mm 3 mps 759 mmHg 66%
    18:00 +24°C° 0 mm 3 mps 759 mmHg 70%
    19:00 +24°C° 0 mm 3 mps 759 mmHg 73%
    20:00 +22°C° 0.2 mm 3 mps 759 mmHg 75%
    21:00 +21°C° 0.2 mm 4 mps 759 mmHg 76%
    22:00 +21°C° 0.2 mm 4 mps 759 mmHg 78%
    23:00 +21°C° 0.6 mm 4 mps 759 mmHg 79%

    Day after tomorrow, 26 June, Tuesday

    Time Temperature Precipitation Wind Pressure Humidity
    00:00 +20°C° 0.6 mm 4 mps 759 mmHg 80%
    01:00 +20°C° 0.6 mm 3 mps 758 mmHg 80%
    02:00 +20°C° 0.3 mm 3 mps 758 mmHg 80%
    03:00 +20°C° 0.3 mm 3 mps 758 mmHg 81%
    04:00 +19°C° 0.3 mm 3 mps 758 mmHg 81%
    05:00 +20°C° 0.3 mm 3 mps 758 mmHg 77%
    06:00 +21°C° 0.3 mm 3 mps 758 mmHg 74%
    07:00 +23°C° 0.3 mm 2 mps 758 mmHg 70%
    08:00 +24°C° 0.1 mm 2 mps 758 mmHg 65%
    09:00 +26°C° 0.1 mm 2 mps 758 mmHg 60%
    10:00 +27°C° 0.1 mm 2 mps 758 mmHg 55%
    11:00 +27°C° 0.1 mm 2 mps 757 mmHg 56%
    12:00 +27°C° 0.1 mm 3 mps 757 mmHg 57%
    13:00 +27°C° 0.1 mm 4 mps 757 mmHg 57%
    14:00 +26°C° 0.2 mm 4 mps 757 mmHg 62%
    15:00 +26°C° 0.2 mm 4 mps 757 mmHg 66%
    16:00 +25°C° 0.2 mm 4 mps 757 mmHg 71%
    17:00 +23°C° 0.3 mm 4 mps 757 mmHg 75%
    18:00 +22°C° 0.3 mm 4 mps 757 mmHg 80%
    19:00 +22°C° 0.3 mm 4 mps 757 mmHg 84%
    20:00 +21°C° 0.4 mm 4 mps 757 mmHg 85%
    21:00 +21°C° 0.4 mm 4 mps 757 mmHg 86%
    22:00 +20°C° 0.4 mm 4 mps 757 mmHg 87%
    23:00 +20°C° 1.3 mm 3 mps 757 mmHg 88%

    27 June, Wednesday

    Time Temperature Precipitation Wind Pressure Humidity
    00:00 +20°C° 1.3 mm 3 mps 757 mmHg 88%
    01:00 +20°C° 1.3 mm 3 mps 756 mmHg 89%
    02:00 +20°C° 1.6 mm 4 mps 756 mmHg 89%
    03:00 +20°C° 1.6 mm 4 mps 756 mmHg 89%
    04:00 +20°C° 1.6 mm 4 mps 756 mmHg 89%
    05:00 +20°C° 1 mm 4 mps 756 mmHg 87%
    06:00 +20°C° 1 mm 4 mps 756 mmHg 86%
    07:00 +20°C° 1 mm 4 mps 756 mmHg 85%
    08:00 +21°C° 0.5 mm 4 mps 756 mmHg 80%
    09:00 +22°C° 0.5 mm 4 mps 756 mmHg 75%
    10:00 +23°C° 0.5 mm 4 mps 756 mmHg 70%
    11:00 +25°C° 0.2 mm 3 mps 756 mmHg 68%
    12:00 +26°C° 0.2 mm 3 mps 756 mmHg 65%
    13:00 +26°C° 0.2 mm 3 mps 756 mmHg 63%
    14:00 +26°C° 0.2 mm 3 mps 756 mmHg 64%
    15:00 +26°C° 0.2 mm 3 mps 756 mmHg 64%
    16:00 +26°C° 0.2 mm 4 mps 756 mmHg 65%
    17:00 +25°C° 0.3 mm 4 mps 756 mmHg 69%
    18:00 +23°C° 0.3 mm 4 mps 756 mmHg 74%
    19:00 +22°C° 0.3 mm 4 mps 756 mmHg 78%
    20:00 +22°C° 0.1 mm 4 mps 757 mmHg 79%
    21:00 +21°C° 0.1 mm 5 mps 757 mmHg 80%
    22:00 +21°C° 0.1 mm 5 mps 757 mmHg 81%
    23:00 +21°C° 0 mm 4 mps 757 mmHg 81%

    28 June, Thursday

    Time Temperature Precipitation Wind Pressure Humidity
    00:00 +20°C° 0 mm 4 mps 757 mmHg 81%
    01:00 +20°C° 0 mm 4 mps 757 mmHg 82%
    02:00 +20°C° 0 mm 3 mps 757 mmHg 82%
    03:00 +20°C° 0 mm 3 mps 757 mmHg 82%
    04:00 +19°C° 0 mm 3 mps 757 mmHg 82%
    05:00 +21°C° 0 mm 3 mps 757 mmHg 78%
    06:00 +22°C° 0 mm 3 mps 757 mmHg 74%
    07:00 +24°C° 0 mm 3 mps 757 mmHg 69%
    08:00 +25°C° 0 mm 3 mps 757 mmHg 65%
    09:00 +27°C° 0 mm 3 mps 758 mmHg 61%
    10:00 +28°C° 0 mm 3 mps 758 mmHg 57%
    11:00 +28°C° 0 mm 4 mps 758 mmHg 58%
    12:00 +28°C° 0 mm 4 mps 758 mmHg 58%
    13:00 +29°C° 0 mm 5 mps 757 mmHg 58%
    14:00 +29°C° 0 mm 5 mps 757 mmHg 59%
    15:00 +28°C° 0 mm 5 mps 757 mmHg 60%
    16:00 +28°C° 0 mm 5 mps 757 mmHg 61%
    17:00 +27°C° 0 mm 5 mps 758 mmHg 66%
    18:00 +26°C° 0 mm 5 mps 758 mmHg 71%
    19:00 +25°C° 0 mm 5 mps 758 mmHg 76%
    20:00 +23°C° 0 mm 5 mps 758 mmHg 77%
    21:00 +22°C° 0 mm 4 mps 759 mmHg 79%
    22:00 +21°C° 0 mm 4 mps 759 mmHg 80%
    23:00 +21°C° 0 mm 4 mps 759 mmHg 79%

    29 June, Friday

    Time Temperature Precipitation Wind Pressure Humidity
    00:00 +21°C° 0 mm 3 mps 759 mmHg 79%
    01:00 +20°C° 0 mm 3 mps 759 mmHg 78%
    02:00 +20°C° 0 mm 3 mps 759 mmHg 78%
    03:00 +20°C° 0 mm 3 mps 759 mmHg 78%
    04:00 +20°C° 0 mm 3 mps 759 mmHg 77%
    05:00 +21°C° 0 mm 3 mps 759 mmHg 73%
    06:00 +24°C° 0 mm 3 mps 759 mmHg 70%
    07:00 +25°C° 0 mm 3 mps 759 mmHg 66%
    08:00 +26°C° 0 mm 3 mps 759 mmHg 62%
    09:00 +28°C° 0 mm 3 mps 759 mmHg 59%
    10:00 +29°C° 0 mm 3 mps 759 mmHg 55%
    11:00 +29°C° 0 mm 3 mps 759 mmHg 55%
    12:00 +30°C° 0 mm 4 mps 759 mmHg 54%
    13:00 +30°C° 0 mm 4 mps 759 mmHg 53%
    14:00 +30°C° 0 mm 4 mps 759 mmHg 56%
    15:00 +30°C° 0 mm 4 mps 759 mmHg 58%
    16:00 +29°C° 0 mm 4 mps 759 mmHg 60%
    17:00 +28°C° 0 mm 3 mps 759 mmHg 64%
    18:00 +27°C° 0 mm 2 mps 759 mmHg 69%
    19:00 +25°C° 0 mm 2 mps 759 mmHg 73%
    20:00 +24°C° 0 mm 2 mps 760 mmHg 75%
    21:00 +24°C° 0 mm 2 mps 760 mmHg 76%
    22:00 +23°C° 0 mm 1 mps 760 mmHg 77%
    23:00 +23°C° 0 mm 2 mps 760 mmHg 74%
    Show more